Regional Weather Roundup
Issued by NWS

Home | Current Version | Previous Version | Text Only | Print | Product List | Glossary On
Versions: 1 2 3 4 5 6 7 8 9 10 11 12 13 14 15 16 17 18 19 20 21 22 23 24 25 26 27 28 29 30 31 32 33 34 35 36 37 38 39 40 41 42 43 44 45 46 47 48 49 50
037
ASUS45 KTFX 061310
RWRMT
MONTANA REGIONAL WEATHER ROUNDUP
NATIONAL WEATHER SERVICE GREAT FALLS MT
600 AM MST SAT FEB 06 2016

NOTE: "FAIR" INDICATES FEW OR NO CLOUDS BELOW 12000 FEET WITH NO
SIGNIFICANT WEATHER AND/OR OBSTRUCTIONS TO VISIBILITY.

MTZ001>007-043-061400-
WEST OF THE DIVIDE

CITY           SKY/WX    TMP DP  RH WIND       PRES   REMARKS
KALISPELL      PTCLDY    40  26  57 SW10G20   30.01R
MISSOULA       LGT RAIN  39  30  70 NW20G29   30.13R WCI  29
BUTTE          MOCLDY    34  16  47 SE6       30.08F WCI  29
MULLAN PASS    MIX PCPN  25  21  85 W9G22     30.07R WCI  15
ANACONDA         N/A     36  18  48 S28G38    30.05F WCI  23
DEER LODGE       N/A     41  23  48 SW15G22   30.03F
HAMILTON         N/A     45  23  42 S17G23    30.09S
LIBBY            N/A     43  25  49 W6        30.08R
PLAINS           N/A     41  26  55 SW17      30.11R
THOMPSON FALLS   N/A     36  33  88 CALM      30.17R
$$

MTZ008-052>055-061400-
SOUTHWEST MONTANA

CITY           SKY/WX    TMP DP  RH WIND       PRES   REMARKS
BOZEMAN        CLOUDY    25  16  68 S7        30.10F WCI  17
DILLON         CLOUDY    27  16  63 S12       30.17F WCI  17
ENNIS          CLOUDY    32  19  59 S25G36    30.25S WCI  19
THREE FORKS      N/A     33   2  27 SW12      30.07F WCI  24
TWIN BRIDGES     N/A     30  15  53 SE7       30.15F WCI  23
$$

MTZ009-010-012-014-046-048-049-054-061400-
EAST SLOPES AND CENTRAL MONTANA

CITY           SKY/WX    TMP DP  RH WIND       PRES   REMARKS
CUT BANK       LGT SNOW  34  32  92 W22G39    29.83R FOG     WCI  22
GREAT FALLS    CLOUDY    39  20  46 SW16      29.87F WCI  30
MALMSTROM AFB  CLOUDY    41  22  47 SW22G30   29.87F
HELENA         PTCLDY    28  21  75 SW7       30.00F WCI  21
CHOTEAU          N/A     45  25  45 SW25G37   29.85S
CONRAD           N/A     45  28  51 SW33      29.84F
$$

MTZ011-013-016-021-045-047-050-051-061400-
NORTH CENTRAL MONTANA

CITY           SKY/WX    TMP DP  RH WIND       PRES   REMARKS
HAVRE          CLOUDY    41  26  55 SW18      29.77F
LEWISTOWN      CLOUDY    43  23  45 SW23G29   29.89F
N BAR RANCH      N/A     48  18  29 W13G20    29.87F
CHINOOK          N/A     48  23  37 W21G26    29.77R
$$

MTZ017>020-022>027-061-062-061400-
NORTHEAST MONTANA

CITY           SKY/WX    TMP DP  RH WIND       PRES   REMARKS
GLASGOW        CLOUDY    38  27  64 S9        29.78F WCI  31
JORDAN           N/A     39  28  64 SW14      29.84F WCI  31
SIDNEY         PTCLDY    34  25  69 S8        29.81F WCI  27
WOLF POINT     CLOUDY    40  28  62 SW10      29.79F
PLENTYWOOD       N/A     39  27  60 SW9       29.72F
POPLAR           N/A     39  28  65 SW14      29.78F WCI  31
SCOBEY           N/A     39  21  48 SW6       29.72F
$$

MTZ028>42-056>058-061400-
SOUTHCENTRAL AND SOUTHEAST MONTANA

CITY           SKY/WX    TMP DP  RH WIND       PRES   REMARKS
BAKER          CLOUDY    33  18  53 W18       29.92F WCI  22
BILLINGS       CLOUDY    39  15  37 SW20      29.98F WCI  29
LIVINGSTON     CLOUDY    38  19  46 SW43G59   30.05S WCI  24
MILES CITY     CLOUDY    38  21  50 W9        29.92F WCI  31
EKALAKA          N/A     34  14  43 SW9       29.92F WCI  27
FORSYTH          N/A     45  18  33 SW7       29.94F
LAUREL           N/A     41  14  33 SW12      29.97F
ROUNDUP          N/A     39  18  43 S7        29.86F
$$

REGIONAL REPORTS...DAKOTAS

CITY           SKY/WX    TMP DP  RH WIND       PRES   REMARKS
WILLISTON      CLOUDY    36  27  69 S8        29.77F WCI  30
MINOT          CLOUDY    39  24  55 SW15G21   29.73F WCI  31
DICKINSON      PTCLDY    33  21  61 W13       29.83F WCI  24
BEACH            N/A     36  19  51 SW16G22   29.89F WCI  26
CROSBY           N/A     36  30  80 SW20      29.72F WCI  25
TIOGA            N/A     34  32  93 W15       29.78F WCI  24
WATFORD CITY     N/A     36  27  69 SW14      29.79F WCI  27
BISMARCK       CLOUDY    34  24  67 SW7       29.86F WCI  28
GRAND FORKS    CLOUDY    21  16  81 S12       29.85F WCI   9
FARGO          CLOUDY    23  18  81 S12       29.91F WCI  12
BUFFALO SD       N/A     32  18  56 SW7       29.86F WCI  26
RAPID CITY     CLOUDY    26  17  68 CALM      30.02S
$$

REGIONAL REPORTS...WYOMING/IDAHO/WASHINGTON

CITY           SKY/WX    TMP DP  RH WIND       PRES   REMARKS
GILLETTE       CLOUDY    32  18  56 SW18G28   30.02F WCI  20
SHERIDAN       CLEAR     28  16  59 NE2       29.98F
BUFFALO WY     CLOUDY    34  18  52 NW3       30.02S
CODY           CLOUDY    39  18  41 W15G28    30.10F WCI  31
YELLOWSTONE LA   N/A     21  17  84 VRB6      30.32S WCI  13
IDAHO FALLS    CLOUDY    15  12  88 N6        30.46R WCI   6
SALMON         CLOUDY    12   9  85 SE8       30.30F WCI   1
BOISE          MOCLDY    33  27  78 SE12      30.41F WCI  24
SPOKANE        CLEAR     36  29  75 SW22      30.18R WCI  25
$$

REGIONAL REPORTS...ALBERTA

CITY           SKY/WX    TMP DP  RH WIND       PRES   REMARKS
EDMONTON       CLOUDY    41  25  52 W15       29.44R
CALGARY        CLEAR     39  21  48 SW15      29.51F WCI  31
LETHBRIDGE     CLEAR     39  27  60 SW29G37   29.69F WCI  28
MEDICINE HAT   MOCLDY    43  30  61 SW21G32   29.63F
WATERTON GATE    N/A     37  21  52 SW24G48     N/A  WCI  26
MILK RIVER       N/A     41  27  56 W26G37      N/A
ONEFOUR          N/A     45  25  45 W24G32      N/A
$$

REGIONAL REPORTS...SASKATCHEWAN

CITY           SKY/WX    TMP DP  RH WIND       PRES   REMARKS
SWIFT CURRENT  CLOUDY    45  25  45 SW23G31   29.57F
REGINA         MOCLDY    36  28  75 SW15      29.60S WCI  26
SASKATOON      CLOUDY    36  28  75 SW9       29.47F WCI  29
CYPRESS HILLS    N/A     39  23  52 W23G32      N/A  WCI  29
VAL MARIE        N/A     39  27  60 S12         N/A  WCI  32
ASSINIBOIA       N/A     41  27  56 W14         N/A
$$




USA.gov is the U.S. government's official web portal to all federal, state and local government web resources and services.